www.pogodaiklimat.ru

Погода и климат >> Архив погоды >> Великобритания >> Гаварден


ПОГОДА в Гавардене

  • Прогноз погоды в Гавардене
  • Монитор погоды в Гавардене

АРХИВ ПОГОДЫ в Гавардене

Время (UTC), дата Ветер
(напр.,м/с)
 
Видим.   Явления Облачность Т
(С)
Тd
(С)
f
(%)
Тe
(С)
Тes
(С)
Комфортность P
(гПа)
Po
(гПа)
Тmin
(С)
Tmax
(С)
R
(мм)
R24
(мм)
S
(см)
10 14.08 ЮВ 6 35 км слаб. морось с дождем н/о +15.1 +13.8 92 +13 +13 1008.1 1006.9
11 14.08 ЮВ 6 20 км слаб. дождь н/о +15.0 +14.2 95 +13 +13 1007.0 1005.8
12 14.08 Ю 7 15 км дождь н/о +15.2 +14.3 94 +13 +13 1007.0 1005.8 3
13 14.08 Ю 6 45 км в посл. час дождь н/о +15.5 +14.7 95 +14 +14 1006.2 1005.0
14 14.08 Ю 6 30 км н/о +17.5 +15.8 90 +17 +17 1005.6 1004.4
15 14.08 Ю 5 23 км в посл. час дождь н/о +17.5 +16.3 93 +17 +17 1005.3 1004.1
16 14.08 Ю 4 45 км н/о +18.1 +16.6 91 +18 +18 1004.5 1003.3
17 14.08 ЮЗ 3 45 км н/о +18.9 +16.2 84 +20 +20 1004.5 1003.3
18 14.08 ЮЗ 5 50 км н/о +19.7 +16.2 80 +22 +22 комфорт 1004.3 1003.1 +20.2 4
19 14.08 Ю 3 35 км в посл. час дождь н/о +18.0 +15.9 88 +18 +18 1004.2 1003.0
20 14.08 ЮЗ 4 30 км н/о +17.2 +15.6 90 +17 +17 1004.2 1003.0
21 14.08 З 3 50 км слаб. ливневой дождь н/о +17.2 +15.8 91 +17 +17 1004.8 1003.6
22 14.08 З 2 35 км в посл. час дождь н/о +16.7 +13.6 82 +17 +17 1005.2 1004.0
23 14.08 ЮЗ 3 25 км н/о +15.3 +12.9 86 +15 +15 1005.5 1004.3
00 15.08 З 5 35 км н/о +16.2 +12.9 81 +15 +15 1005.5 1004.3 1
01 15.08 ЮЗ 4 29 км н/о +15.8 +12.9 83 +15 +15 1005.7 1004.5
02 15.08 З 5 35 км н/о +16.3 +12.8 80 +15 +15 1005.4 1004.2
03 15.08 З 2 45 км н/о +16.1 +12.9 81 +16 +16 1005.7 1004.5
04 15.08 З 5 40 км в посл. час дождь н/о +15.5 +12.7 83 +14 +14 1005.9 1004.7
05 15.08 З 4 45 км н/о +15.7 +11.7 77 +15 +15 1006.7 1005.5
06 15.08 З 6 29 км в посл. час дождь н/о +15.3 +11.9 80 +14 +14 1007.5 1006.3 +14.9 1
07 15.08 З 7 35 км н/о +15.3 +12.0 81 +14 +14 1008.2 1007.0
08 15.08 З 6 29 км в посл. час дождь н/о +16.1 +12.0 77 +15 +15 1009.2 1008.0
09 15.08 СЗ 5
{14}
30 км н/о +15.6 +11.4 76 +15 +15 1010.3 1009.1
10 15.08 СЗ 6
{13}
21 км в посл. час дождь н/о +16.1 +11.1 72 +15 +15 1011.2 1010.0
11 15.08 СЗ 7 40 км н/о +16.7 +9.7 63 +15 +15 1012.1 1010.9
12 15.08 СЗ 7 30 км н/о +17.7 +10.2 61 +17 +17 1012.7 1011.5 0.0
13 15.08 СЗ 7 35 км н/о +18.2 +9.0 55 +18 +18 1013.2 1012.0
14 15.08 СЗ 6 23 км н/о +18.4 +9.3 55 +18 +18 1013.6 1012.4
15 15.08 З 5 40 км н/о +18.7 +9.3 54 +19 +19 1014.1 1012.9
16 15.08 СЗ 5 40 км н/о +17.8 +8.7 55 +17 +17 1014.5 1013.4
17 15.08 СЗ 5 29 км н/о +18.2 +9.3 56 +18 +18 1015.1 1013.9
18 15.08 З 3 40 км н/о +18.4 +10.1 58 +19 +19 1015.0 1013.8 +18.9 0.0
19 15.08 З 3 45 км н/о +17.4 +10.7 65 +17 +17 1015.1 1013.9
20 15.08 ЮЗ 2 30 км н/о +15.2 +10.8 75 +15 +15 1015.1 1013.9
21 15.08 Ю 3 40 км н/о +14.7 +12.0 84 +14 +14 1015.3 1014.1
22 15.08 Ю 4 45 км н/о +16.2 +12.3 78 +15 +15 1014.9 1013.7
23 15.08 ЮВ 4 45 км н/о +14.3 +11.7 84 +13 +13 1014.4 1013.2
00 16.08 Ю 4 40 км н/о +14.3 +12.2 87 +13 +13 1013.7 1012.5
01 16.08 Ю 4 45 км н/о +14.0 +12.4 90 +13 +13 1013.1 1011.9
02 16.08 ЮВ 3 30 км н/о +13.8 +12.1 89 +13 +13 1012.7 1011.5
03 16.08 ЮВ 4 30 км н/о +13.6 +12.2 91 +12 +12 1012.4 1011.2
04 16.08 Ю 5 27 км н/о +14.0 +12.4 90 +12 +12 1011.0 1009.8
05 16.08 Ю 4 27 км н/о +14.2 +12.6 90 +13 +13 1010.5 1009.3
06 16.08 ЮВ 5 29 км н/о +14.7 +12.9 89 +13 +13 1009.4 1008.3 +13.2
07 16.08 ЮВ 5 10 км дождь н/о +14.1 +13.4 96 +12 +12 1008.7 1007.5
08 16.08 ЮВ 5 18 км слаб. дождь н/о +14.5 +13.6 94 +13 +13 1007.5 1006.4
09 16.08 Ю 6 35 км в посл. час дождь н/о +15.4 +13.7 90 +14 +14 1006.2 1005.0
10 16.08 Ю 6 30 км в посл. час дождь н/о +16.0 +13.7 86 +15 +15 1005.4 1004.2
11 16.08 Ю 7 30 км слаб. ливневой дождь н/о +16.3 +13.7 85 +15 +15 1004.6 1003.4
12 16.08 Ю 7
{13}
30 км слаб. дождь н/о +16.5 +14.2 86 +15 +15 1003.8 1002.6 1
13 16.08 Ю 6 18 км ливневой дождь н/о +16.5 +14.9 90 +15 +15 1003.0 1001.8
14 16.08 Ю 5 23 км слаб. дождь н/о +16.7 +15.5 93 +16 +16 1002.1 1001.0
15 16.08 Ю 6 22 км слаб. дождь н/о +17.4 +16.1 92 +17 +17 1001.2 1000.0
16 16.08 Ю 5 9000 м сильн. дождь н/о +16.8 +16.1 96 +16 +16 1000.4 999.3
17 16.08 Ю 5 6000 м дождь н/о +17.2 +16.8 97 +17 +17 999.3 998.1
18 16.08 Ю 5 19 км в посл. час дождь н/о +17.5 +17.0 97 +17 +17 998.9 997.7 +17.6 7
19 16.08 ЮВ 5 45 км в посл. час дождь н/о +17.7 +17.1 96 +17 +17 998.4 997.2
20 16.08 ЮЗ 2 45 км н/о +17.9 +15.0 83 +18 +18 998.9 997.7
21 16.08 Ю 3 35 км н/о +17.7 +14.8 83 +18 +18 998.8 997.6
22 16.08 ЮЗ 5 35 км н/о +16.4 +11.8 74 +16 +16 998.9 997.8
23 16.08 ЮЗ 7 18 км н/о +15.9 +12.4 80 +14 +14 998.9 997.8
00 17.08 ЮЗ 5 18 км н/о +16.0 +12.9 82 +15 +15 998.8 997.6 0.2
01 17.08 ЮЗ 5 18 км н/о +15.8 +12.6 81 +15 +15 998.9 997.7
02 17.08 ЮЗ 5 20 км н/о +16.1 +12.6 80 +15 +15 999.0 997.8
03 17.08 ЮЗ 4 19 км н/о +16.0 +12.5 80 +15 +15 999.2 998.1
04 17.08 ЮЗ 5 17 км н/о +15.5 +12.4 82 +14 +14 998.9 997.7
05 17.08 Ю 4 19 км н/о +14.5 +12.7 89 +13 +13 999.1 997.9
06 17.08 Ю 5 18 км в посл. час дождь н/о +14.8 +13.2 90 +13 +13 999.3 998.1 +14.5 0.2
07 17.08 З 4 28 км н/о +16.0 +12.6 80 +15 +15 1000.1 998.9
08 17.08 З 3 24 км н/о +16.8 +11.8 72 +17 +17 1000.7 999.5
09 17.08 ЮЗ 4 29 км н/о +17.9 +11.0 64 +18 +18 1001.1 999.9
10 17.08 ЮЗ 6 30 км н/о +17.9 +9.1 56 +17 +17 1001.5 1000.4
11 17.08 ЮЗ 7-14
{14}
30 км н/о +18.5 +9.9 57 +18 +18 1002.0 1000.8
12 17.08 ЮЗ 8-13
{13}
22 км н/о +18.8 +8.8 52 +19 +19 1002.0 1000.8
13 17.08 ЮЗ 8
{13}
20 км н/о +18.3 +9.1 55 +18 +18 1002.3 1001.1
14 17.08 З 6 30 км н/о +19.7 +9.8 53 +21 +21 комфорт 1002.1 1000.9
15 17.08 ЮЗ 7 30 км н/о +18.7 +10.4 58 +19 +19 1002.4 1001.2
16 17.08 ЮЗ 8 24 км н/о +19.3 +9.7 54 +20 +20 1002.2 1001.1
17 17.08 ЮЗ 7 30 км н/о +18.5 +8.5 52 +18 +18 1001.7 1000.5
18 17.08 ЮЗ 5-11
{13}
23 км н/о +17.8 +9.4 58 +17 +17 1001.9 1000.7 +19.9
19 17.08 ЮЗ 5 22 км н/о +16.5 +8.7 60 +16 +16 1002.1 1001.0
20 17.08 ЮЗ 5 28 км н/о +15.2 +8.8 66 +14 +14 1001.8 1000.6
21 17.08 ЮЗ 5 35 км н/о +14.2 +8.9 70 +13 +13 1001.7 1000.6
22 17.08 ЮЗ 6 29 км н/о +14.8 +9.3 70 +13 +13 1001.3 1000.1
23 17.08 Ю 5 22 км н/о +13.7 +9.4 75 +12 +12 1001.7 1000.5
00 18.08 Ю 3 19 км н/о +12.4 +10.0 85 +11 +11 1001.6 1000.4
01 18.08 Ю 3 22 км н/о +11.7 +10.1 90 +10 +10 1001.0 999.8
02 18.08 Ю 5 18 км н/о +12.0 +10.6 91 +9 +9 1000.6 999.4
03 18.08 Ю 4 20 км н/о +12.0 +10.5 91 +10 +10 1000.4 999.2
04 18.08 Ю 5 21 км н/о +12.3 +10.8 91 +10 +10 1000.0 998.8
05 18.08 ЮЗ 3 20 км н/о +11.5 +10.3 92 +10 +10 1000.0 998.8
06 18.08 Ю 3 21 км н/о +11.9 +10.8 93 +10 +10 1000.0 998.8 +11.2
07 18.08 Ю 4 25 км н/о +13.5 +11.4 87 +12 +12 999.9 998.7
08 18.08 Ю 4 19 км н/о +15.8 +11.9 78 +15 +15 999.8 998.7
09 18.08 ЮЗ 5 30 км н/о +16.8 +11.2 70 +16 +16 1000.4 999.2
10 18.08 ЮЗ 7 30 км н/о +17.6 +9.2 58 +17 +17 1000.4 999.2
11 18.08 ЮЗ 6 30 км н/о +18.7 +9.3 54 +19 +19 1000.8 999.6
12 18.08 ЮЗ 8-15
{15}
27 км н/о +18.7 +9.3 54 +18 +18 1001.1 1000.0
13 18.08 ЮЗ 7-13
{14}
27 км н/о +19.0 +10.0 56 +19 +19 1001.5 1000.3
14 18.08 ЮЗ 8-13
{14}
23 км н/о +19.6 +9.4 52 +20 +20 1001.7 1000.5
15 18.08 ЮЗ 7-13
{15}
22 км н/о +19.3 +9.5 53 +20 +20 1002.2 1001.0
16 18.08 ЮЗ 7-13
{13}
19 км н/о +17.8 +9.8 59 +17 +17 1002.8 1001.6
17 18.08 ЮЗ 7-12
{13}
17 км н/о +17.2 +10.5 65 +16 +16 1003.1 1001.9
18 18.08 ЮЗ 7 23 км слаб. ливневой дождь н/о +15.6 +11.3 76 +14 +14 1003.2 1002.0 +19.8 0.0
19 18.08 ЮЗ 6 17 км ливневой дождь н/о +14.8 +12.1 84 +13 +13 1003.4 1002.2
20 18.08 ЮЗ 6 21 км в посл. час дождь н/о +14.9 +11.8 82 +13 +13 1003.6 1002.4
21 18.08 ЮЗ 4 18 км н/о +14.7 +11.6 82 +14 +14 1004.5 1003.3
22 18.08 ЮЗ 5 22 км н/о +14.8 +11.6 81 +13 +13 1004.9 1003.7
23 18.08 ЮЗ 4 26 км н/о +14.4 +11.2 81 +13 +13 1005.6 1004.4
00 19.08 З 4 35 км н/о +15.1 +11.7 80 +14 +14 1006.0 1004.8 0.0
01 19.08 ЮЗ 2 35 км в посл. час дождь н/о +14.2 +11.6 84 +14 +14 1006.3 1005.1
02 19.08 ЮЗ 3 40 км н/о +14.1 +11.9 87 +13 +13 1006.9 1005.7
03 19.08 З 2 45 км в посл. час дождь н/о +14.2 +11.5 84 +14 +14 1007.2 1006.0
04 19.08 З 4 27 км н/о +14.4 +10.8 79 +13 +13 1007.5 1006.3
05 19.08 З 3 21 км н/о +14.1 +10.5 79 +13 +13 1008.4 1007.3
06 19.08 З 3 20 км н/о +13.7 +10.1 79 +13 +13 1009.3 1008.1 +13.3 0.0
07 19.08 ЮЗ 3 26 км н/о +13.7 +10.7 82 +13 +13 1009.8 1008.6
08 19.08 З 4 24 км н/о +16.1 +11.4 74 +15 +15 1010.2 1009.0
09 19.08 ЮЗ 3 21 км н/о +15.8 +10.5 71 +15 +15 1010.7 1009.5
10 19.08 З 4 40 км н/о +17.9 +10.1 60 +18 +18 1011.0 1009.8
11 19.08 З 5 9000 м ливневой дождь н/о +15.6 +10.6 72 +15 +15 1011.5 1010.3
12 19.08 З 5 35 км в посл. час дождь н/о +18.7 +11.2 62 +19 +19 1011.7 1010.5 0.2
13 19.08 З 6 45 км н/о +19.1 +9.1 52 +19 +19 1012.4 1011.2
14 19.08 З 6 45 км н/о +18.1 +7.4 50 +18 +18 1012.9 1011.7
15 19.08 З 6 45 км н/о +18.5 +8.4 52 +18 +18 1013.3 1012.1
16 19.08 З 6 26 км н/о +19.0 +9.5 54 +19 +19 1013.5 1012.3
17 19.08 З 5 20 км н/о +17.8 +9.4 58 +17 +17 1013.8 1012.6
18 19.08 ЮЗ 5 17 км н/о +16.6 +10.5 67 +16 +16 1014.4 1013.2 +19.7 0.2
19 19.08 ЮЗ 5 35 км в посл. час дождь н/о +15.8 +10.1 69 +15 +15 1014.6 1013.4
20 19.08 ЮЗ 5 30 км н/о +15.1 +10.2 73 +14 +14 1015.1 1013.9
21 19.08 ЮЗ 5 30 км н/о +14.2 +10.1 76 +13 +13 1015.5 1014.3
22 19.08 ЮЗ 4 40 км н/о +13.9 +9.8 76 +12 +12 1016.2 1015.0
23 19.08 ЮЗ 3 45 км н/о +13.5 +9.4 76 +12 +12 1016.7 1015.5
00 20.08 ЮЗ 4 35 км н/о +13.2 +9.8 80 +12 +12 1016.8 1015.6 0.0
01 20.08 З 2 40 км н/о +13.6 +9.9 78 +13 +13 1017.0 1015.8
02 20.08 З 3 45 км н/о +13.3 +9.4 77 +12 +12 1017.2 1016.0
03 20.08 З 4 40 км н/о +13.5 +9.3 76 +12 +12 1017.7 1016.5
04 20.08 З 3 30 км н/о +13.1 +9.4 78 +12 +12 1017.9 1016.7
05 20.08 З 3 35 км н/о +12.7 +9.6 81 +11 +11 1018.5 1017.3
06 20.08 ЮЗ 2 29 км н/о +12.0 +9.7 86 +11 +11 1019.4 1018.2 +11.8 0.0
07 20.08 С 1 40 км н/о +13.5 +9.9 79 +14 +14 1020.0 1018.8
08 20.08 З 6 27 км н/о +14.6 +8.7 68 +13 +13 1020.4 1019.2
09 20.08 З 4 27 км н/о +15.6 +8.4 62 +15 +15 1021.2 1020.0
10 20.08 З 3 30 км н/о +16.9 +7.9 55 +17 +17 1021.6 1020.4
11 20.08 З 3 26 км в посл. час дождь н/о +16.5 +8.8 60 +16 +16 1022.2 1021.0
12 20.08 З 4 25 км н/о +17.6 +7.5 52 +17 +17 1022.4 1021.2 0.0
13 20.08 З 4 30 км н/о +18.2 +7.5 50 +18 +18 1022.4 1021.2
14 20.08 З 5 40 км н/о +18.2 +6.0 45 +18 +18 1022.6 1021.4
15 20.08 З 4 25 км н/о +19.1 +7.7 48 +20 +20 1022.7 1021.5
16 20.08 З 4 20 км н/о +19.0 +8.0 49 +20 +20 1022.7 1021.5
17 20.08 ЮЗ 3 18 км н/о +17.3 +8.9 58 +17 +17 1023.1 1021.9
18 20.08 ЮЗ 1 20 км в посл. час дождь н/о +15.0 +11.6 80 +16 +16 1023.4 1022.2 +19.6 0.2
19 20.08 В 3 6000 м ливневой дождь н/о +14.5 +12.4 87 +14 +14 1023.5 1022.3
20 20.08 Ю 3 14 км дождь н/о +14.2 +12.9 92 +13 +13 1023.7 1022.4
21 20.08 Ю 4 30 км в посл. час дождь н/о +14.3 +13.2 93 +13 +13 1023.6 1022.4
22 20.08 Ю 4 27 км н/о +14.3 +13.2 93 +13 +13 1023.6 1022.4
23 20.08 Ю 3 25 км н/о +14.1 +12.8 92 +13 +13 1023.7 1022.5
00 21.08 ЮВ 2 18 км н/о +13.6 +12.8 95 +13 +13 1023.9 1022.7 1
01 21.08 Ю 2 18 км н/о +13.6 +12.6 94 +13 +13 1024.0 1022.8
02 21.08 Ю 3 25 км в посл. час туман н/о +13.1 +11.9 92 +12 +12 1024.2 1023.0
03 21.08 Ю 3 18 км н/о +12.3 +11.5 95 +11 +11 1024.2 1023.0
04 21.08 Ю 3 19 км н/о +13.0 +12.2 95 +11 +11 1024.2 1023.0
05 21.08 Ю 2 15 км н/о +12.9 +12.0 94 +12 +12 1024.4 1023.2
06 21.08 Ю 2 10 км ливневой дождь н/о +13.2 +12.6 96 +12 +12 1024.5 1023.3 +11.6 2
07 21.08 Ю 2 28 км в посл. час дождь н/о +14.3 +13.6 96 +14 +14 1024.8 1023.5
08 21.08 Ю 3 16 км н/о +15.9 +13.6 86 +15 +15 1024.9 1023.6

 

Местоположение метеостанции Гаварден (Великобритания): широта 53.17 долгота -2.98 высота над уровнем моря 9 м.

В архиве по умолчанию представлена погода в Гавардене за последнюю неделю. Архивные данные за месяц целиком и за предыдущие месяцы, начиная с января 2011 года, Вы можете получить, выбрав интересующий диапазон дат из раскрывающегося списка и нажав кнопку "Ввод!".


*Определитесь, кто Вы:
робот инопланетянин человек

Внимание! Время в таблицах - всемирное. Для получения местного времени необходимо прибавить поправку, которая равна 0 ч.

Смотрите также архив погоды в соседних городах и на ближайших метеорологических станциях:

Погода в Риле (Великобритания) (36 км)
Погода в Кросби (Великобритания) (37 км)
Погода на Ростерн Мир (Великобритания) (45 км)
Погода в Шобери (Великобритания) (46 км)
Погода в Бала (Великобритания) (50 км)
Погода на Озере Вирнви (Великобритания) (57 км)
Погода в Кейпл Кериг (Великобритания) (64 км)
Погода в Блэкпуле (Великобритания) (67 км)
Погода в Лик-Торнклифф (Великобритания) (67 км)
Погода в Моне (Великобритания) (93 км)

Пояснения к столбцам:

Ветер - указаны скорость ветра в м/с - средняя за 10 мин, порывы в срок и между сроками (в фигурных скобках) и направление, откуда дует ветер: С - северный, СВ - северо-восточный, В - восточный, ЮВ - юго-восточный, Ю - южный, ЮЗ - юго-западный, З - западный, СЗ - северо-западный.
Видимость - горизонтальная дальность видимости в метрах или километрах. При видимости от 1 до 10 км при отсутствии осадков обычно наблюдается дымка, при ухудшении видимости до 1 км и менее - туман. В сухую погоду видимость может ухудшаться дымом, пылью или мглою.
Явления - указаны атмосферные явления, наблюдавшиеся в срок или в последний час перед сроком; фигурными скобками обозначены явления, наблюдавшиеся между сроками (за 1-3 часа до срока); квадратными скобками обозначены град или гололедные отложения с указанием их диаметра в мм.
Облачность - указаны через наклонную черту общая и нижняя облачность в баллах и высота нижней границы облаков в метрах; квадратными скобками обозначены формы облаков: Ci - перистые, Cs - перисто-слоистые, Cc - перисто-кучевые, Ac - высококучевые, As - высокослоистые, Sc - слоисто-кучевые, Ns - слоисто-дождевые, Cu - кучевые, Cb - кучево-дождевые. Подробнее классификацию облаков см. в Атласе облаков (PDF).
T - Температура воздуха - температура, измеренная на высоте 2 м над землей.
Td - Температура точки росы - температура, при понижении до которой содержащийся в воздухе водяной пар достигнет насыщения.
f - Относительная влажность воздуха - влажноcть воздуха, измеренная на высоте 2 м над землей.
Te - Эффективная температура - температура, которую ощущает одетый по сезону человек в тени. Характеристика душности погоды. При расчете учитывается влияние влажности воздуха и скорости ветра на теплоощущения человека.
Tes - Эффективная температура на солнце - температура, которую ощущает человек, с поправкой на солнечный нагрев. Характеристика знойности погоды. Зависит от высоты солнца над горизонтом, облачности и скорости ветра. Ночью, в пасмурную погоду, а также при ветре 12 м/с и более поправка равна нулю.
P - Атмосферное давление - приведенное к уровню моря атмосферное давление.
Po - Атмосферное давление - измеренное на уровне метеостанции атмосферное давление.
Tmin - Минимальная температура - минимум температуры воздуха на высоте 2 м над землей.
Tmax - Максимальная температура - максимум температуры воздуха на высоте 2 м над землей.
R - Количество осадков - Количество выпавших осадков за период времени, мм. При наведении курсора мыши на число - период времени, за который выпало указанное количество осадков.
R24 - Количество осадков - Количество выпавших осадков за 24 часа, мм.
S - Снежный покров - Высота снежного покрова, см. При наведении курсора мыши на число - состояние снежного покрова и степень покрытия местности в баллах.